Voltar ao catálogo

FENGYUN 1C DEB

AtivoSSO
NORAD 30753·DEBRIS·🇨🇳 China

Lançado May 10, 1999 de Taiyuan Satellite Launch Center

Loading…

Próximas Passagens (próximas 24 horas)

TLE

AtualizadoSource: Space-Track

Época: Sep 14, 2026, 13:33 UTC

1 30753U 99025ATP 26257.56462440  .00001071  00000-0  58472-3 0  9994
2 30753  98.7865 296.3842 0053990 291.0022  68.5380 14.13458818  2486

Acompanhe FENGYUN 1C DEB em tempo real com AllMySat

Download on the App Store